Temp
29 27 27 26 25 24 25 27 30 29 28 27 29 28 27 26 26 24 20 22 22 21 21 21 21 21 21 21 21 21 21 21 21 21 21 21 21 21 21 21 21 21 21 21 21 21 21 20 21
26 26 26 23 24 25 26 27 28 29 29 27 29 28 27 25 24 21 20 22 22 21 21 21 21 21 21 21 21 21 21 21 21 21 21 21 21 21 21 21 21 21 21 21 21 21 21 21 21
29 27 23 23 22 25 25 28 29 29 29 29 29 28 26 22 22 22 21 22 21 21 21 21 21 21 21 21 21 21 21 21 21 21 21 21 21 21 21 21 22 21 21 21 21 21 21 21 21
28 23 23 23 25 25 25 26 30 29 29 29 28 26 25 25 23 22 21 21 21 21 21 21 21 21 21 21 21 21 21 21 21 20 20 20 21 21 21 20 20 21 21 21 21 22 21 20 21
27 23 24 24 25 25 26 27 28 29 28 28 28 26 25 24 23 21 21 21 22 21 21 21 21 21 21 21 21 21 21 21 20 20 20 21 21 21 21 21 21 20 20 20 21 21 21 21 21
25 25 24 25 25 27 28 28 28 29 29 28 27 26 23 22 21 21 21 21 22 22 21 21 21 21 21 21 21 21 21 21 21 20 21 21 21 21 21 21 21 21 20 20 21 21 21 21 21
26 25 26 27 27 27 28 29 29 28 28 28 28 24 22 22 21 21 21 22 22 22 21 21 21 21 21 21 21 21 21 21 21 21 21 21 21 21 21 21 21 21 20 20 21 21 21 21 21
26 27 28 28 27 29 30 30 29 29 29 29 27 24 22 23 22 22 21 22 22 21 21 21 21 21 21 21 21 21 21 21 21 21 20 21 21 21 22 22 22 21 21 20 21 21 21 21 22
30 27 27 29 29 29 29 28 29 31 29 29 29 26 25 23 22 21 20 20 20 20 21 21 21 21 21 21 21 21 21 21 21 21 21 21 22 21 22 22 22 22 21 21 20 21 21 21 21
29 26 30 31 30 29 30 28 28 29 29 27 25 25 23 22 21 21 21 21 20 20 21 21 21 22 21 22 21 21 21 21 22 21 21 21 22 22 22 22 23 22 22 21 21 20 20 20 21
30 30 32 33 31 30 29 29 30 28 27 26 24 23 23 22 22 22 21 21 21 21 21 21 21 22 22 22 21 21 21 21 22 22 21 21 22 22 22 22 22 22 21 21 21 21 20 21 21
33 33 33 33 31 30 29 29 29 29 29 28 25 24 23 23 22 22 22 21 21 20 21 21 21 22 22 22 22 22 21 22 22 22 22 21 22 22 22 21 21 21 21 21 21 21 21 21 21
34 33 33 33 32 31 30 29 29 29 29 28 27 25 24 24 24 23 23 22 22 21 21 21 21 22 22 21 21 21 21 22 22 22 21 21 21 21 22 21 21 22 22 22 21 21 21 22 22
34 33 33 32 32 31 30 29 29 29 28 28 27 26 25 24 24 23 23 22 22 22 22 22 22 22 22 22 22 22 22 22 21 21 21 21 21 21 22 22 22 22 22 22 22 22 21 22 22
33 31 31 31 31 30 29 28 28 28 29 27 27 26 26 26 25 24 24 23 23 23 23 22 22 22 22 22 22 22 22 22 22 21 21 20 21 22 22 22 22 23 22 22 22 22 22 22 22
31 31 29 31 31 30 29 26 28 28 29 28 27 27 27 26 25 25 24 24 24 23 23 23 22 23 23 22 22 22 22 22 22 21 21 21 21 22 22 22 22 22 22 22 22 22 22 22 23
32 29 29 31 31 31 30 28 29 28 29 28 28 27 27 26 26 26 25 25 25 24 24 23 23 23 23 23 22 22 22 22 22 21 21 21 21 22 22 23 23 22 22 22 22 22 22 22 23
30 30 31 29 31 30 29 28 29 29 29 29 28 27 27 27 26 26 25 25 25 25 25 24 23 23 23 23 22 22 21 22 22 22 22 22 22 22 22 22 22 22 22 22 22 22 23 23 23
31 32 33 31 31 30 29 29 28 29 29 29 28 27 26 27 27 26 25 25 25 25 25 25 24 23 23 22 22 21 22 22 22 22 22 22 22 22 22 22 22 22 22 22 22 22 23 23 23
33 33 32 33 31 30 28 29 29 29 29 29 28 26 26 26 25 26 25 25 25 25 25 24 24 24 24 23 23 22 22 23 23 23 22 22 22 22 22 22 23 23 22 22 22 22 23 23 22
31 32 32 32 31 31 29 28 29 30 30 29 28 27 26 26 26 26 25 25 25 24 25 25 25 24 24 24 23 23 22 22 22 22 22 22 22 23 23 23 23 22 22 23 23 23 22 23 23
31 32 34 31 29 28 29 26 27 28 29 29 28 26 26 25 26 26 26 25 25 25 25 25 25 25 24 24 23 24 23 23 24 23 23 23 23 23 23 23 23 23 22 22 23 23 23 22 22
32 34 32 34 29 28 30 28 26 27 27 27 27 25 25 25 25 25 26 26 25 25 25 26 26 24 25 24 24 24 23 23 24 24 23 23 23 23 23 23 23 22 22 22 22 22 22 22 22
34 34 29 26 26 28 29 27 27 28 30 29 28 27 25 25 24 24 26 27 26 25 25 24 25 25 25 25 24 24 24 24 23 23 23 23 24 24 23 24 23 23 22 22 22 22 22 22 22
30 27 27 29 26 27 27 28 27 27 26 28 28 23 24 25 24 24 23 23 26 26 25 25 25 25 25 25 25 25 25 24 23 23 24 24 23 24 24 24 23 23 23 23 22 22 22 22 22
31 28 27 29 27 28 27 29 28 26 25 27 24 23 25 25 23 23 23 23 26 26 26 25 25 26 24 24 24 25 25 25 24 24 24 24 24 25 24 24 24 23 23 23 22 22 22 22 22
31 30 28 25 24 26 25 27 27 26 24 24 24 25 25 25 24 23 23 25 25 25 26 25 25 25 25 25 25 25 25 25 25 24 24 24 24 24 24 24 23 23 22 22 22 22 22 22 22
33 29 29 24 30 30 26 26 25 25 24 23 23 25 24 21 23 22 24 21 21 23 24 24 25 24 24 24 24 25 25 24 26 24 24 24 24 24 24 24 23 23 22 22 22 22 22 22 22
30 28 25 24 24 25 25 26 24 23 22 23 23 23 22 22 22 21 20 21 21 22 22 22 20 18 18 16 22 25 26 25 24 25 24 24 24 24 24 23 23 23 22 23 22 22 22 22 22
29 28 24 26 28 23 24 26 22 22 22 23 23 22 21 20 21 20 19 20 19 20 18 19 17 18 17 17 17 20 20 25 25 25 24 23 23 23 23 23 22 22 22 22 22 22 22 22 22
Height
740 741 742 742 778 785 799 789 761 770 771 762 759 768 777 776 783 804 788 793 798 805 810 813 816 817 819 821 822 823 824 826 828 830 830 831 834 835 836 836 837 839 840 841 844 844 845 845 846
741 744 744 754 792 806 801 778 775 765 759 759 761 766 773 786 778 785 790 796 800 806 810 814 817 819 821 823 824 826 827 829 831 832 832 833 835 836 837 838 839 841 842 843 844 845 846 847 847
742 743 756 777 798 806 804 777 770 762 757 760 767 765 776 788 784 786 788 796 802 808 811 815 818 820 822 823 825 827 829 831 832 834 835 837 837 837 839 841 841 842 843 844 845 846 847 849 849
743 746 761 789 798 793 789 777 765 766 762 760 767 782 777 778 785 787 792 797 803 809 813 817 820 822 823 825 827 828 830 832 834 836 836 837 839 840 840 842 843 843 844 845 845 846 847 849 850
746 758 786 797 796 784 778 772 768 772 768 767 768 786 787 787 787 791 796 800 803 810 815 818 821 823 825 826 828 830 831 833 835 837 837 837 838 840 841 843 844 845 846 846 846 846 847 848 849
762 766 799 804 795 779 772 767 767 769 767 769 777 783 794 790 790 794 798 803 807 811 816 819 822 824 826 827 828 830 831 834 836 837 838 839 839 840 841 842 843 844 846 847 847 846 847 848 850
768 781 794 789 788 783 776 763 769 771 772 775 771 793 797 796 797 798 800 805 809 813 816 820 823 825 827 828 829 830 832 834 836 837 838 838 839 840 840 841 842 843 844 846 846 845 846 847 848
757 769 784 782 789 782 764 762 762 768 772 767 770 794 802 796 799 801 803 808 811 814 816 819 822 824 826 828 830 831 833 835 837 838 838 838 839 840 840 840 841 841 842 843 844 844 844 845 847
748 783 793 778 780 774 761 768 764 759 768 769 770 776 786 793 799 802 807 812 815 816 817 819 821 823 826 828 830 832 833 835 836 837 838 839 840 840 840 840 840 840 841 842 843 843 843 844 845
758 783 772 754 756 764 761 765 769 772 773 781 783 784 790 794 799 801 806 809 812 814 816 818 820 823 825 827 830 831 833 834 834 836 836 838 839 839 839 838 837 838 839 841 841 842 843 843 844
749 769 750 749 746 748 762 767 764 774 784 780 786 789 792 797 801 804 806 806 804 810 815 817 820 821 823 826 828 830 830 831 832 834 836 837 838 838 838 838 836 837 838 840 840 842 842 843 843
751 743 742 745 744 752 764 764 770 771 770 771 776 781 790 796 799 802 804 805 807 809 812 815 818 819 822 824 827 827 828 830 831 833 835 836 837 837 838 837 836 837 839 839 840 840 841 842 843
745 745 741 741 749 754 756 766 768 770 766 774 779 785 789 792 794 799 801 802 805 808 810 812 815 818 820 823 825 826 826 827 829 832 833 833 833 835 836 836 836 837 838 837 838 839 840 841 842
739 744 748 748 751 755 764 769 766 772 768 776 780 785 788 792 794 799 800 800 802 805 808 810 814 816 818 820 822 823 825 827 828 829 829 829 829 830 833 834 834 835 836 835 835 837 838 839 840
737 763 759 759 759 767 763 782 781 769 770 779 783 786 789 790 793 790 790 794 798 802 806 807 812 815 817 817 820 820 822 824 825 826 827 827 827 828 830 831 832 833 834 834 833 834 836 837 839
757 764 790 767 764 766 770 802 775 769 772 780 783 784 783 785 783 785 789 793 796 800 801 805 810 811 813 815 817 820 822 823 824 825 825 826 826 827 828 829 830 831 831 832 831 832 834 835 837
767 793 787 780 761 765 774 791 771 769 773 777 779 779 780 781 783 784 786 790 794 796 799 802 805 807 810 813 817 819 821 821 822 823 824 824 825 825 825 826 827 828 828 829 830 830 830 833 834
788 788 777 783 765 767 779 777 769 769 772 774 775 778 778 778 778 780 783 787 790 792 795 798 802 804 807 811 815 817 818 818 819 820 821 821 822 823 823 823 823 824 826 828 829 827 827 829 830
764 767 768 765 755 768 776 772 771 769 772 774 774 776 778 775 775 779 782 786 789 792 793 795 797 799 805 810 813 813 813 815 815 817 818 818 818 818 819 819 820 821 822 824 826 825 825 824 828
756 766 770 755 751 765 778 776 768 768 768 768 770 772 771 774 776 778 780 784 785 786 790 793 796 799 802 806 809 812 813 814 813 812 813 815 815 816 816 817 817 816 818 821 823 824 824 823 826
765 766 765 765 761 763 776 790 779 769 766 766 764 765 768 769 771 774 777 779 784 785 785 788 790 793 798 802 807 812 814 814 813 811 810 811 812 811 812 813 815 816 816 817 820 821 821 821 824
773 747 749 762 778 803 771 825 789 775 770 764 762 765 764 766 767 769 773 777 776 777 781 783 787 787 792 798 801 802 806 811 810 812 809 807 806 810 809 810 812 812 812 813 816 818 819 820 822
759 738 748 747 776 784 784 807 794 775 778 770 762 764 762 760 762 764 764 766 768 774 776 777 783 788 791 794 797 797 797 800 804 806 806 806 806 807 808 808 806 809 812 814 815 816 816 816 815
730 743 762 777 788 808 789 801 799 776 755 758 755 756 759 764 761 757 760 766 769 772 777 781 784 789 789 791 792 794 795 797 802 805 803 804 804 806 807 806 807 807 810 811 811 812 813 813 810
749 776 813 809 819 816 788 790 781 766 761 752 752 768 766 762 761 761 758 760 765 771 773 778 782 784 788 789 790 793 798 800 801 803 801 802 801 802 804 805 805 805 805 807 808 809 809 809 809
753 769 806 819 826 808 784 795 777 764 758 746 753 758 756 757 757 759 764 767 763 765 770 773 774 775 782 785 789 796 797 795 796 798 799 799 799 799 801 803 803 803 803 804 805 805 806 807 807
754 771 762 802 808 811 806 785 769 764 762 757 756 755 754 752 750 752 752 760 771 776 775 769 769 772 778 780 783 787 792 798 796 796 797 797 798 799 798 800 802 802 802 803 803 803 803 804 803
736 747 780 799 807 809 809 799 799 779 771 766 762 756 756 759 754 757 759 766 774 777 779 777 776 777 783 787 784 781 788 789 793 792 794 795 797 797 797 797 800 801 801 802 802 801 801 801 801
754 767 779 788 800 820 824 803 775 774 770 767 761 761 761 760 756 757 764 763 774 774 779 777 780 778 783 805 788 781 784 791 793 794 794 795 794 798 797 798 799 800 802 800 799 800 800 799 798
745 759 778 795 792 808 808 799 774 771 768 764 761 759 758 758 757 760 763 767 776 778 771 778 777 777 794 761 770 783 786 785 786 794 793 793 793 795 796 796 797 799 799 800 800 798 798 796 794
Wind_Speed
2 2 9 5 5 5 4 5 2 6 3 2 6 4 5 3 1 3 20 23 32 28 27 26 24 23 23 23 24 24 24 24 24 22 22 21 20 19 18 17 15 14 14 14 15 14 13 12 13
3 2 4 2 5 3 2 5 2 0 3 8 7 4 4 3 5 14 17 35 36 30 28 27 25 23 22 22 22 21 21 20 20 19 18 18 18 18 17 16 14 12 13 13 13 14 13 13 12
9 5 4 4 3 3 3 4 1 8 10 3 4 4 4 3 12 21 19 38 34 30 29 27 25 23 22 21 20 19 18 18 17 16 15 14 14 15 14 13 13 12 11 11 12 11 11 12 12
5 5 4 4 2 0 3 4 1 4 4 9 9 7 4 8 15 14 35 38 35 31 29 26 25 22 20 19 17 16 15 15 14 14 14 13 12 12 12 10 10 10 10 10 9 9 9 9 11
6 4 5 4 1 4 4 4 7 3 3 8 3 4 5 3 16 35 31 35 35 30 27 26 24 21 18 16 15 14 14 13 13 12 11 11 11 10 10 9 8 8 9 8 8 7 6 7 8
4 3 4 1 3 3 1 5 4 4 7 10 11 6 4 23 30 30 33 34 32 31 26 25 23 20 18 16 16 15 15 14 13 12 10 9 9 9 8 7 7 7 7 8 9 8 7 6 6
5 3 3 3 3 1 1 6 1 6 9 4 5 5 4 12 21 28 31 32 31 30 27 25 22 20 18 17 16 16 15 15 12 12 11 9 8 6 6 6 6 7 7 6 6 8 7 7 8
4 3 2 4 5 2 6 7 11 6 3 8 6 6 8 12 23 25 28 30 31 29 28 27 25 23 21 19 16 15 14 13 12 11 10 9 8 6 4 4 5 7 7 7 6 6 7 7 8
4 3 3 5 6 5 11 5 4 4 9 3 2 7 17 28 28 26 24 21 21 24 27 27 25 24 23 20 17 15 13 13 11 10 10 8 6 5 4 4 5 6 7 8 7 6 6 7 7
5 4 8 5 6 10 11 9 7 7 12 9 12 18 26 30 28 25 24 23 24 26 28 29 29 26 24 21 18 17 15 14 12 12 10 9 8 6 6 5 5 10 9 7 8 7 7 6 8
6 6 4 2 5 16 12 6 3 14 8 17 21 19 21 24 22 22 22 27 34 31 29 30 29 28 27 23 22 19 18 17 16 14 11 9 10 9 9 8 9 11 10 10 8 8 8 8 9
4 4 7 5 8 9 14 8 6 13 6 19 21 24 21 20 17 20 21 22 24 29 32 32 30 29 27 25 24 22 22 20 18 15 14 12 15 15 9 8 8 11 9 8 8 7 8 9 10
4 3 7 8 8 11 13 9 10 6 14 16 19 20 20 17 24 23 23 25 27 27 31 33 32 29 27 26 26 24 23 21 18 17 15 15 16 14 14 8 5 8 6 6 7 7 8 8 9
3 5 9 6 8 13 12 7 4 5 17 19 20 20 19 17 21 18 21 25 27 29 32 32 32 30 28 28 27 26 22 19 16 16 15 13 13 13 14 9 10 13 8 8 6 7 9 11 12
11 10 7 4 5 6 11 4 7 11 16 18 18 15 13 15 21 26 31 28 29 32 31 33 31 29 28 27 26 25 22 18 15 13 12 13 13 12 10 8 9 7 7 7 4 6 10 10 11
6 5 6 3 7 9 4 5 6 10 16 17 19 16 18 18 26 27 25 26 28 29 32 31 30 30 29 28 25 24 20 18 15 11 10 9 9 11 9 7 8 6 8 9 8 5 8 10 12
0 8 4 6 7 5 2 3 11 12 15 16 16 18 17 17 17 23 24 27 30 31 31 31 31 30 29 28 23 21 19 16 15 11 10 11 11 12 12 10 9 7 9 8 9 10 8 10 12
5 6 4 8 14 7 5 8 14 15 14 17 14 13 15 16 18 23 25 28 28 31 31 32 31 31 28 26 21 18 18 18 16 16 14 12 13 13 15 15 12 10 10 12 12 13 11 12 9
4 1 3 8 7 7 11 9 16 17 14 13 13 11 9 17 15 19 23 25 26 28 32 32 32 31 27 25 22 20 20 19 18 18 16 16 17 18 18 18 17 15 12 9 9 10 10 13 10
0 1 5 5 8 5 7 11 12 18 19 17 15 10 12 8 9 16 21 24 28 32 34 33 32 30 28 27 24 18 17 16 18 19 19 16 17 18 19 20 19 18 13 9 10 11 13 16 16
1 2 6 5 6 4 8 6 4 7 7 8 11 8 6 14 14 14 18 25 24 28 36 37 34 32 29 28 22 16 13 17 15 19 19 19 21 21 20 19 18 21 18 14 13 14 16 15 11
4 6 7 11 8 6 5 4 7 8 11 12 12 9 11 9 10 12 17 21 29 34 36 39 35 34 30 28 25 23 20 18 19 17 20 18 21 17 18 18 15 16 18 18 14 14 14 13 13
10 1 3 3 5 6 3 3 7 8 10 11 13 9 9 8 9 13 17 27 31 29 35 38 35 34 32 30 29 26 25 21 19 13 14 17 15 15 14 14 18 19 19 16 13 13 11 13 13
1 3 7 4 3 1 4 7 4 9 24 14 12 12 9 7 7 9 15 21 22 23 27 30 33 34 34 33 32 31 28 26 21 16 15 17 16 17 14 5 8 11 15 14 16 16 15 14 14
6 6 3 4 4 6 2 3 7 4 7 9 12 8 3 5 6 4 10 13 19 24 29 29 31 34 35 36 35 33 28 25 22 18 17 15 17 17 18 17 13 10 11 15 13 14 14 16 18
4 7 5 5 3 4 4 3 4 4 4 7 11 10 8 8 7 6 4 7 15 23 26 28 31 35 35 36 36 32 28 26 20 20 19 17 17 13 12 13 11 9 6 9 13 14 17 19 21
5 2 5 6 3 2 3 4 5 4 6 6 9 7 9 9 9 10 5 9 0 11 12 26 30 33 33 39 35 33 29 25 23 17 18 17 16 14 11 8 7 7 7 8 10 12 16 18 20
3 5 3 3 2 2 4 4 4 3 5 3 6 11 2 7 5 5 8 16 18 18 19 20 21 19 21 34 35 35 27 18 28 19 23 17 13 9 6 4 4 5 5 5 6 9 12 15 16
4 3 6 4 4 5 2 4 5 7 5 8 4 4 4 6 8 4 8 19 23 17 21 12 23 30 27 35 29 31 22 26 22 20 15 12 7 7 5 4 5 6 7 6 6 8 9 11 13
3 4 4 5 2 2 3 2 5 6 5 4 4 2 4 6 3 5 8 19 21 24 39 20 26 36 32 51 46 12 21 20 17 15 14 13 10 7 5 4 4 6 6 7 8 10 11 14 16
Wind_Direction
145 63 157 68 64 66 348 319 328 96 115 150 139 145 149 39 166 178 146 154 153 153 154 151 145 139 135 130 127 127 124 122 122 120 119 117 116 113 108 105 109 111 115 120 119 120 122 124 123
249 60 31 69 82 92 297 276 103 147 138 117 91 97 66 89 68 126 130 155 155 155 157 152 150 145 140 133 130 127 123 120 120 118 116 116 118 115 112 117 115 117 116 117 125 127 127 131 127
40 109 76 70 89 125 158 323 70 100 124 99 105 81 67 92 115 142 150 152 153 156 161 155 155 149 144 140 136 131 127 126 124 119 116 118 119 118 118 122 126 127 125 123 125 132 135 136 135
5 21 39 81 153 139 219 327 128 157 43 69 100 76 78 142 135 151 146 152 155 160 164 159 159 154 149 145 143 140 137 135 130 127 126 127 125 123 125 127 133 134 139 134 133 132 140 141 147
39 54 54 49 33 253 202 256 279 303 66 97 78 92 71 82 140 138 145 154 158 162 163 166 165 162 158 154 150 147 144 143 138 134 136 135 131 130 132 140 148 144 146 150 143 153 147 148 163
35 84 45 128 263 228 331 216 261 114 103 105 99 91 43 130 135 146 151 158 162 161 163 170 172 170 169 167 162 158 155 154 149 148 148 150 143 138 144 150 155 148 152 154 159 172 181 179 179
121 85 207 225 220 5 240 155 273 118 119 86 116 85 101 136 144 147 152 162 164 163 164 170 174 176 175 173 169 163 161 159 159 158 163 158 156 153 155 163 164 156 158 153 165 181 187 194 201
124 111 143 236 177 157 149 168 122 148 51 101 142 144 161 155 146 147 156 163 169 171 171 172 173 172 178 175 172 172 169 166 168 167 169 175 172 170 170 176 188 181 173 164 173 195 199 204 210
136 73 215 207 166 124 139 132 136 100 132 97 211 131 148 143 144 139 143 155 165 174 177 175 174 176 181 181 177 181 176 174 178 180 189 189 183 183 192 213 232 207 194 184 181 205 218 215 221
139 149 203 193 165 147 161 142 169 133 147 99 91 110 134 141 149 149 162 166 172 181 184 181 179 181 185 186 181 188 181 188 198 200 194 190 195 208 193 234 256 220 206 202 194 208 218 221 229
172 183 163 128 134 140 142 118 209 145 174 157 145 145 150 154 159 164 173 176 183 184 184 187 187 189 192 191 191 193 194 200 205 209 205 207 221 232 261 273 260 209 206 201 200 209 223 229 236
87 115 132 169 137 136 142 143 131 168 188 161 156 154 152 168 172 170 179 182 184 183 186 190 193 194 194 197 199 199 203 209 211 213 224 234 248 249 258 275 261 202 210 220 213 213 231 236 238
95 155 139 143 128 127 136 141 146 173 136 148 145 155 166 176 180 182 186 187 185 185 190 194 196 197 199 202 204 207 210 213 223 237 240 252 244 243 241 269 231 191 215 230 233 219 233 234 245
128 129 123 106 100 128 124 132 89 99 138 153 157 171 176 178 181 178 192 192 189 190 193 197 200 202 203 208 210 213 217 225 235 247 252 246 226 234 224 239 227 248 249 256 265 239 239 245 258
125 110 66 72 87 105 104 45 153 158 154 160 169 177 185 188 184 191 197 195 193 195 197 201 201 204 209 213 216 219 225 232 242 251 244 236 234 216 217 243 229 241 259 269 262 258 249 252 258
81 54 124 244 145 166 74 208 221 173 164 168 181 189 196 195 199 200 196 198 195 192 201 205 204 208 214 218 220 223 230 239 247 247 230 217 213 207 220 235 234 252 272 274 263 282 258 264 267
47 172 179 162 211 154 131 178 200 184 178 184 185 196 203 207 208 207 200 198 197 201 203 206 205 213 216 222 224 229 232 236 236 241 233 229 224 222 231 239 245 253 272 276 266 274 268 278 275
214 165 209 175 201 181 195 226 172 192 190 193 199 193 200 202 211 202 200 200 199 205 207 210 209 215 217 220 225 228 232 233 238 242 245 238 230 231 241 246 247 248 256 265 264 268 260 282 282
173 286 220 209 199 153 194 200 179 190 204 208 203 206 197 207 204 195 197 194 195 204 207 209 209 213 211 211 219 225 230 235 234 237 240 242 240 237 238 243 246 242 249 269 267 261 233 259 279
53 87 260 246 170 140 163 219 185 187 207 205 206 206 206 178 172 185 186 189 196 201 208 210 214 213 209 212 213 221 234 239 238 238 241 244 241 241 243 244 240 232 238 244 236 226 222 229 244
321 231 263 193 137 45 111 326 218 193 195 204 210 211 200 185 183 183 187 192 195 200 205 209 212 209 211 210 207 216 239 242 248 242 244 245 245 243 239 246 245 238 234 231 229 225 224 226 231
324 231 272 141 127 198 135 233 271 188 203 204 204 183 190 185 187 187 188 189 196 207 208 210 216 210 210 209 207 209 218 241 249 256 249 258 236 243 246 242 242 232 228 233 232 226 230 233 243
232 195 317 155 129 109 219 100 256 140 219 211 207 191 202 175 185 193 193 197 203 205 208 209 214 216 214 213 214 212 218 227 236 240 243 239 233 231 248 258 241 234 230 236 241 238 237 242 235
4 60 39 56 92 63 198 163 246 201 217 203 198 197 181 160 156 173 184 198 204 206 208 210 212 222 218 219 216 219 222 226 237 237 234 238 242 232 231 230 229 239 234 234 228 233 236 240 234
77 63 350 358 10 228 291 121 238 23 354 238 194 84 116 169 204 207 171 178 189 198 205 210 215 221 226 224 222 220 227 234 236 238 240 242 240 238 235 247 261 284 262 237 242 243 239 244 241
174 145 155 210 207 265 6 254 325 74 345 141 121 149 159 190 215 207 255 316 203 200 200 205 214 219 225 225 224 222 223 230 240 237 232 236 240 251 268 275 260 289 284 252 252 256 253 252 252
191 184 181 108 31 63 280 298 23 62 42 79 143 155 187 210 215 231 200 195 47 332 236 207 214 222 221 225 220 219 221 231 242 240 238 242 245 253 259 251 254 274 290 275 269 268 264 265 268
124 150 56 16 167 235 297 282 216 218 170 153 162 202 247 357 323 297 287 59 27 3 345 358 255 235 234 235 224 218 210 223 241 246 242 240 233 229 222 216 258 284 299 301 282 287 285 280 282
30 24 57 119 121 155 184 274 249 211 186 198 194 45 1 278 255 280 29 33 31 21 25 54 40 31 344 333 272 218 213 203 224 229 229 225 217 207 208 257 289 304 311 316 304 299 300 298 300
100 129 126 127 218 73 138 266 264 187 220 190 221 291 304 296 260 47 59 51 47 60 72 55 25 19 25 342 337 86 243 221 194 201 188 182 189 222 239 263 276 289 303 317 314 309 306 306 305